Location: Gugi
(45.4667°N, 11.1000°E)
Time: 18:57:41
(UTC+00:00)

Helios 1A Rocket - Pass Details

Date: 17 November 2019
Orbit: 564 x 588 km, 98.3° (Epoch: 08 December)

Event Time Altitude Azimuth Distance (km) Brightness Sun altitude
Rises 16:10:53 0° 178° (S) 2,803 6.7 -5.1°
Reaches altitude 10° 16:13:05 10° 184° (S) 1,908 5.9 -5.5°
Maximum altitude 16:17:06 49° 260° (W) 767 4.1 -6.2°
Drops below altitude 10° 16:21:09 10° 336° (NNW) 1,922 5.7 -6.8°
Sets 16:23:23 0° 342° (NNW) 2,825 6.4 -7.2°
